Meteo Giornale » Osservazioni meteo Stati Uniti (USA) » N Kingston-Quonset
ore: 12:50 - Osservazioni Meteo N Kingston-Quonset
Lat. 41° 36' N Lon. 71° 25' W Alt. 6 metri s.l.m.
18 °C
Coperto
Temp. 24 Ore
18 °C
26 °C
Sud/Sud-Est
20.3 Km/h
Dew point 15 °C
Umidità 82 %
Visibilità 11 Km
Il sole sorge alle ore 06:11
Il sole tramonta alle ore 19:19
| Data e Ora | Cielo e Fenomeni | T °C | DP °C | Um. % | Pres. hPa | Vis. km | Vento km/h | |
|---|---|---|---|---|---|---|---|---|
| Oggi h: 12:50 | Coperto | 18 | 15 | 82 | 1016 | 11 | S/SE 20.3 | |
| Oggi h: 11:50 | Molto Nuvoloso | 18 | 16 | 88 | 1017 | 11 | S/SE 27.8 | |
| Oggi h: 10:50 | Foschia | 19 | 18 | 93 | 1016 | 10 | E 29.6 | |
| Oggi h: 10:08 | Foschia | 20 | 19 | 93 | 1017 | 5 | E 14.8 | |
| Oggi h: 09:50 | Foschia | 20 | 19 | 93 | 1016 | 10 | E/SE 20.3 | |
| Oggi h: 08:50 | Foschia | 21 | 19 | 88 | 1016 | 6 | SE 18.5 | |
| Oggi h: 08:40 | Foschia | 21 | 19 | 88 | 1017 | 5 | SE 14.8 | |
| Oggi h: 07:50 | Coperto | 21 | 19 | 88 | 1017 | 10 | S/SE 16.7 | |
| Oggi h: 07:35 | Coperto | 21 | 19 | 88 | 1017 | 10 | S/SE 9.3 | |
| Oggi h: 07:15 | Coperto | 21 | 19 | 88 | 1017 | 10 | S/SE 9.3 | |
| Oggi h: 06:55 | Coperto | 21 | 19 | 88 | 1016 | 10 | SE 9.3 | |
| Oggi h: 06:35 | Coperto | 21 | 19 | 88 | 1016 | 10 | SE 7.4 | |
| Oggi h: 06:15 | Coperto | 22 | 19 | 83 | 1016 | 10 | N 3.7 | |
| Oggi h: 05:55 | Coperto | 22 | 19 | 83 | 1016 | 10 | N 3.7 | |
| Oggi h: 05:35 | Coperto | 21 | 19 | 88 | 1016 | 10 | N 5.5 | |
| Oggi h: 05:15 | Coperto | 21 | 19 | 88 | 1016 | 10 | SE 9.3 | |
| Oggi h: 04:55 | Coperto | 21 | 18 | 82 | 1016 | 10 | N 3.7 | |
| Oggi h: 04:35 | Coperto | 20 | 18 | 88 | 1017 | 10 | N 0 | |
| Oggi h: 04:15 | Molto Nuvoloso | 21 | 18 | 82 | 1017 | 10 | N 5.5 | |
| Oggi h: 03:55 | Coperto | 21 | 19 | 88 | 1017 | 10 | N 3.7 | |
| Oggi h: 03:35 | Coperto | 22 | 18 | 78 | 1017 | 10 | N 5.5 | |
| Oggi h: 03:15 | Coperto | 21 | 19 | 88 | 1017 | 10 | SE 11.1 | |
| Oggi h: 02:55 | Coperto | 21 | 18 | 82 | 1017 | 10 | S/SE 7.4 | |
| Oggi h: 02:35 | Coperto | 21 | 18 | 82 | 1017 | 10 | N 5.5 | |
| Oggi h: 02:15 | Coperto | 21 | 18 | 82 | 1017 | 10 | S/SO 7.4 | |
| Oggi h: 01:55 | Coperto | 21 | 18 | 82 | 1017 | 10 | N 5.5 | |
| Oggi h: 01:35 | Coperto | 21 | 18 | 82 | 1017 | 10 | S/SO 11.1 | |
| Oggi h: 01:15 | Coperto | 21 | 18 | 82 | 1018 | 10 | S/SO 7.4 | |
| Oggi h: 00:55 | Coperto | 21 | 18 | 82 | 1018 | 10 | S/SO 7.4 | |
| Oggi h: 00:35 | Coperto | 21 | 18 | 82 | 1018 | 10 | S/SO 7.4 | |
| Oggi h: 00:15 | Coperto | 21 | 17 | 77 | 1018 | 10 | N 5.5 | |
| Ieri h: 23:55 | Coperto | 21 | 18 | 82 | 1018 | 10 | SO 9.3 | |
| Ieri h: 23:35 | Coperto | 21 | 18 | 82 | 1018 | 10 | SO 7.4 | |
| Ieri h: 23:15 | Coperto | 21 | 18 | 82 | 1018 | 10 | S/SO 9.3 | |
| Ieri h: 22:55 | Coperto | 21 | 18 | 82 | 1018 | 10 | S/SO 9.3 | |
| Ieri h: 22:50 | Coperto | 21 | 18 | 82 | 1018 | 10 | S/SO 11.1 | |
| Ieri h: 21:50 | Molto Nuvoloso | 21 | 17 | 77 | 1018 | 10 | SO 11.1 | |
| Ieri h: 20:50 | Molto Nuvoloso | 21 | 17 | 77 | 1018 | 10 | S/SO 13 | |
| Ieri h: 19:50 | Coperto | 21 | 17 | 77 | 1018 | 10 | S/SO 14.8 | |
| Ieri h: 17:50 | Molto Nuvoloso | 22 | 17 | 73 | 1018 | 10 | N 1.8 | |
| Ieri h: 15:50 | Nuvoloso | 22 | 17 | 73 | 1018 | 10 | S/SO 18.5 | |
| Ieri h: 14:50 | Nuvoloso | 24 | 18 | 69 | 1019 | 10 | S 18.5 | |
| Ieri h: 13:50 | Nuvoloso | 26 | 13 | 44 | 1019 | 10 | E/SE 7.4 | |



